Location: Helion Bumpstead
(52.0500°N, 0.4000°E)
Time: 20:47:18
(UTC+00:00)

Cosmos 1634 Rocket - Pass Details

Date: 15 November 2025
Orbit: 958 x 992 km, 82.9° (Epoch: 14 December)

Event Time Altitude Azimuth Distance (km) Brightness Sun altitude
Rises 06:21:27 0° 349° (N) 3,670 6.7 -8.8°
Reaches altitude 10° 06:23:58 10° 350° (N) 2,715 6.1 -8.5°
Maximum altitude 06:30:12 85° 81° (E) 971 4.1 -7.6°
Drops below altitude 10° 06:36:22 10° 170° (S) 2,685 6.8 -6.7°
Sets 06:38:50 0° 171° (S) 3,627 7.5 -6.3°
